CW7668 Weather Reports


time (UTC)temp
C
wind
direction
speed
KPH
gust
KPH
rain 1hr
cm
rain 24hr
cm
rain mn
cm
humidity
%
barometer
mb
20260510020631 25 139 0.0 3.2 0.00 0.00 0.00 77 1009.3
20260510020129 25 139 0.0 3.2 0.00 0.00 0.00 76 1009.2
20260510015630 25 139 0.0 3.2 0.00 0.00 0.00 77 1009.2
20260510015130 25 137 0.0 1.6 0.00 0.00 0.00 76 1009.0
20260510014631 25 136 0.0 1.6 0.00 0.00 0.00 76 1008.8
20260510014130 25 136 0.0 4.8 0.00 0.00 0.00 76 1008.8
20260510013630 26 136 0.0 4.8 0.00 0.00 0.00 75 1008.8
20260510013130 26 137 1.6 9.7 0.00 0.00 0.00 75 1008.8
20260510012630 26 125 1.6 9.7 0.00 0.00 0.00 75 1008.9
20260510012125 26 107 1.6 9.7 0.00 0.00 0.00 75 1008.9
20260510011625 25 127 1.6 8.0 0.00 0.00 0.00 74 1008.8
20260510011125 25 146 1.6 8.0 0.00 0.00 0.00 73 1008.7
20260510010626 25 135 0.0 6.4 0.00 0.00 0.00 73 1008.8
20260510010359 25 147 0.0 4.8 0.00 0.00 0.00 74 1008.6
20260510005626 25 147 0.0 6.4 0.00 0.00 0.00 74 1008.6
20260510005126 25 149 3.2 9.7 0.00 0.00 0.00 74 1008.5
20260510004627 25 145 3.2 14.5 0.00 0.00 0.00 73 1008.4
20260510004127 25 117 3.2 14.5 0.00 0.00 0.00 73 1008.6
20260510003627 25 146 1.6 12.9 0.00 0.00 0.00 73 1008.8
20260510003127 25 101 3.2 16.1 0.00 0.00 0.00 73 1008.9
20260510002625 24 141 4.8 16.1 0.00 0.00 0.00 75 1008.7
20260510002125 24 76 6.4 19.3 0.00 0.00 0.00 76 1008.8
20260510001625 25 82 8.0 25.7 0.00 0.00 0.00 74 1008.7
20260510001125 25 96 8.0 25.7 0.00 0.00 0.00 70 1008.7
20260510000625 25 98 6.4 22.5 0.00 0.00 0.00 71 1008.7
20260510000126 25 86 6.4 17.7 0.00 0.00 0.00 74 1008.8
20260509235625 25 89 8.0 19.3 0.00 0.00 0.00 72 1008.6
20260509235125 26 115 8.0 20.9 0.00 0.00 0.00 71 1008.7
20260509234625 28 110 4.8 20.9 0.00 0.00 0.00 68 1008.4
20260509234132 30 11 0.0 4.8 0.00 0.00 0.00 77 1008.1
20260509234127 30 161 1.6 11.3 0.00 0.00 0.00 75 1008.2
20260509233126 30 325 0.0 1.6 0.00 0.00 0.00 74 1008.1
20260509232627 30 325 0.0 1.6 0.00 0.00 0.00 74 1008.2
20260509232126 30 325 0.0 0.0 0.00 0.00 0.00 73 1008.0
20260509231623 30 325 0.0 1.6 0.00 0.00 0.00 75 1007.9
20260509231122 30 325 0.0 1.6 0.00 0.00 0.00 74 1008.1
20260509230620 30 325 0.0 3.2 0.00 0.00 0.00 73 1008.1
20260509230120 31 325 0.0 3.2 0.00 0.00 0.00 73 1008.1
20260509225617 31 325 0.0 1.6 0.00 0.00 0.00 73 1008.1
20260509225114 31 325 0.0 1.6 0.00 0.00 0.00 73 1007.9
20260509224842 31 325 0.0 1.6 0.00 0.00 0.00 71 1007.8
20260509224109 31 325 0.0 4.8 0.00 0.00 0.00 70 1007.9
20260509223610 31 325 0.0 4.8 0.00 0.00 0.00 72 1007.8
20260509223104 31 329 1.6 4.8 0.00 0.00 0.00 72 1008.6
20260509222558 31 329 1.6 4.8 0.00 0.00 0.00 70 1007.9
20260509222423 31 329 0.0 0.0 0.00 0.00 0.00 70 1007.8
20260509221040 31 329 0.0 0.0 0.00 0.00 0.00 72 1007.8
20260509220534 31 314 0.0 0.0 0.00 0.00 0.00 74 1007.8
20260509220027 31 314 0.0 0.0 0.00 0.00 0.00 72 1007.8
20260509215521 31 314 0.0 3.2 0.00 0.00 0.00 74 1007.6
20260509215016 31 318 1.6 4.8 0.00 0.00 0.00 71 1007.7
20260509214510 32 316 1.6 4.8 0.00 0.00 0.00 72 1007.6
20260509214004 31 25 0.0 4.8 0.00 0.00 0.00 75 1007.8
20260509213458 31 27 0.0 4.8 0.00 0.00 0.00 75 1007.7
20260509212952 31 27 0.0 4.8 0.00 0.00 0.00 74 1007.8
20260509212445 31 27 0.0 4.8 0.00 0.00 0.00 75 1007.8
20260509211946 31 27 0.0 4.8 0.00 0.00 0.00 77 1007.9
20260509211443 31 36 1.6 6.4 0.00 0.00 0.00 76 1007.9
20260509210943 31 39 1.6 6.4 0.00 0.00 0.00 77 1007.8
20260509210445 31 32 0.0 3.2 0.00 0.00 0.00 76 1007.8
20260509205942 31 32 0.0 4.8 0.00 0.00 0.00 76 1007.9
20260509205439 31 32 1.6 4.8 0.00 0.00 0.00 76 1008.0
20260509204940 31 355 1.6 8.0 0.00 0.00 0.00 75 1008.2
20260509204440 31 355 1.6 8.0 0.00 0.00 0.00 75 1008.1
20260509203937 31 339 1.6 4.8 0.00 0.00 0.00 75 1008.2
20260509203435 31 343 0.0 4.8 0.00 0.00 0.00 77 1008.3
20260509202935 31 355 1.6 4.8 0.00 0.00 0.00 78 1008.3
20260509202436 31 355 1.6 6.4 0.00 0.00 0.00 76 1008.4
20260509201936 31 290 1.6 16.1 0.00 0.00 0.00 76 1008.4
20260509201436 31 288 1.6 16.1 0.00 0.00 0.00 80 1008.5
20260509200935 31 331 0.0 4.8 0.00 0.00 0.00 79 1008.6
20260509200431 31 331 0.0 4.8 0.00 0.00 0.00 77 1008.7
20260509195930 30 332 1.6 6.4 0.00 0.00 0.00 80 1008.7
20260509195431 30 332 1.6 11.3 0.00 0.00 0.00 79 1008.7
20260509194932 30 11 1.6 11.3 0.00 0.00 0.00 79 1008.8
20260509194425 30 272 1.6 4.8 0.00 0.00 0.00 78 1008.8
20260509193919 30 267 1.6 4.8 0.00 0.00 0.00 79 1008.8
20260509193413 30 295 1.6 6.4 0.00 0.00 0.00 81 1008.9
20260509192906 30 273 1.6 9.7 0.00 0.00 0.00 78 1008.9
20260509192404 30 305 1.6 9.7 0.00 0.00 0.00 78 1009.0
20260509192357 31 299 1.6 6.4 0.00 0.00 0.00 78 1009.1
20260509191619 31 277 1.6 6.4 0.00 0.00 0.00 77 1009.1
20260509190843 31 281 1.6 6.4 0.00 0.00 0.00 77 1009.1
20260509190607 30 49 1.6 3.2 0.00 0.00 0.00 78 1009.2
20260509185831 30 55 0.0 3.2 0.00 0.00 0.00 79 1009.2
20260509185555 30 55 0.0 4.8 0.00 0.03 0.00 80 1009.1
20260509184819 30 55 1.6 4.8 0.00 0.08 0.00 78 1009.3
20260509184312 30 140 1.6 11.3 0.00 0.08 0.00 79 1009.3
20260509183807 30 135 1.6 11.3 0.00 0.10 0.00 83 1009.3
20260509183301 29 121 1.6 11.3 0.00 0.10 0.00 82 1009.4
20260509182755 29 101 1.6 11.3 0.00 0.10 0.00 81 1009.4
20260509182249 29 133 3.2 11.3 0.00 0.10 0.00 80 1009.5
20260509182014 29 103 3.2 12.9 0.00 0.10 0.00 79 1009.5
20260509181237 30 149 1.6 12.9 0.00 0.10 0.00 81 1009.5
20260509180734 30 141 1.6 8.0 0.00 0.10 0.00 81 1009.7
20260509180728 30 153 1.6 8.0 0.00 0.10 0.00 82 1009.8
20260509175951 29 146 1.6 8.0 0.00 0.10 0.00 83 1009.9
20260509175213 29 161 1.6 8.0 0.00 0.10 0.00 84 1009.9
20260509174707 28 157 3.2 12.9 0.00 0.10 0.00 85 1010.1
20260509174201 28 145 1.6 12.9 0.00 0.10 0.00 83 1010.1
20260509173655 28 247 1.6 8.0 0.00 0.10 0.00 85 1010.2
20260509173149 28 137 3.2 8.0 0.00 0.10 0.00 85 1010.3
20260509172643 28 135 3.2 8.0 0.00 0.10 0.00 86 1010.3
20260509172408 28 120 4.8 12.9 0.00 0.10 0.00 86 1010.5
20260509171631 28 151 4.8 12.9 0.00 0.10 0.00 87 1010.4
20260509171125 28 177 4.8 12.9 0.00 0.10 0.00 90 1010.4
20260509170619 27 193 4.8 12.9 0.00 0.10 0.00 90 1010.2
20260509170113 27 118 3.2 9.7 0.00 0.10 0.00 92 1010.1
20260509165610 26 84 3.2 9.7 0.00 0.10 0.00 91 1010.4
20260509165604 26 83 1.6 9.7 0.00 0.10 0.00 90 1010.5
20260509164555 26 71 0.0 4.8 0.00 0.10 0.00 90 1010.5
20260509164050 26 71 0.0 4.8 0.00 0.10 0.00 91 1010.5
20260509163543 26 70 1.6 4.8 0.00 0.10 0.00 92 1010.6
20260509163037 26 70 0.0 6.4 0.00 0.10 0.00 93 1010.7
20260509162531 26 71 1.6 6.4 0.00 0.10 0.00 94 1010.6
20260509162025 26 92 1.6 4.8 0.00 0.10 0.00 93 1010.6
20260509161519 26 115 0.0 4.8 0.00 0.10 0.00 94 1010.6
20260509161244 25 132 0.0 4.8 0.00 0.10 0.00 94 1010.8
20260509160507 25 132 0.0 4.8 0.00 0.10 0.00 95 1010.9
20260509160001 25 136 0.0 4.8 0.00 0.10 0.00 94 1010.7
20260509155455 25 137 0.0 0.0 0.00 0.10 0.00 95 1010.6
20260509154949 25 137 0.0 0.0 0.00 0.10 0.00 95 1010.9
20260509154442 25 137 0.0 0.0 0.00 0.10 0.00 95 1010.8
20260509153937 25 137 0.0 0.0 0.00 0.10 0.00 95 1010.8
20260509153703 25 137 0.0 0.0 0.00 0.10 0.00 95 1010.8
20260509152925 25 137 0.0 0.0 0.00 0.10 0.00 95 1010.7
20260509152419 25 137 0.0 0.0 0.00 0.10 0.00 95 1010.6
20260509151913 25 137 0.0 3.2 0.00 0.10 0.00 95 1010.6
20260509151638 25 137 1.6 4.8 0.00 0.10 0.00 96 1010.6
20260509150901 25 137 1.6 4.8 0.00 0.10 0.00 96 1010.5
20260509150356 25 140 0.0 4.8 0.00 0.10 0.00 96 1010.4
20260509145849 25 144 0.0 0.0 0.00 0.10 0.00 96 1010.5
20260509145344 25 161 0.0 0.0 0.00 0.10 0.00 97 1010.3
20260509144845 24 161 0.0 0.0 0.00 0.10 0.00 97 1010.0
20260509144345 24 187 0.0 0.0 0.00 0.10 0.00 97 1010.1
20260509143850 24 187 0.0 0.0 0.00 0.10 0.00 97 1009.9
20260509143845 24 187 0.0 0.0 0.00 0.10 0.00 97 1010.0
20260509142844 24 188 0.0 0.0 0.00 0.10 0.00 97 1009.8
20260509142343 24 188 0.0 0.0 0.00 0.10 0.00 97 1009.7
20260509141841 24 188 0.0 0.0 0.00 0.10 0.00 97 1009.6
20260509141340 24 188 0.0 0.0 0.00 0.10 0.00 97 1009.6
20260509141109 24 134 0.0 0.0 0.00 0.10 0.00 97 1009.8
20260509140338 24 134 0.0 0.0 0.00 0.10 0.00 97 1009.7
20260509135840 24 134 0.0 0.0 0.00 0.10 0.00 97 1009.5
20260509135339 23 134 0.0 0.0 0.00 0.10 0.00 97 1009.6
20260509134840 23 134 0.0 4.8 0.00 0.10 0.00 98 1009.8
20260509134335 23 134 0.0 4.8 0.00 0.10 0.00 98 1009.9
20260509133835 23 143 1.6 6.4 0.00 0.10 0.00 98 1010.2
20260509133335 23 143 1.6 6.4 0.00 0.10 0.00 98 1010.3
20260509133106 23 107 1.6 4.8 0.00 0.10 0.00 98 1010.5
20260509132335 23 106 3.2 4.8 0.00 0.10 0.00 98 1010.2
20260509131836 23 103 1.6 4.8 0.00 0.10 0.00 98 1010.5
20260509131337 23 12 0.0 3.2 0.00 0.10 0.00 98 1010.7
20260509130836 24 355 0.0 0.0 0.00 0.10 0.00 98 1010.9
20260509130608 23 355 0.0 1.6 0.00 0.10 0.00 98 1010.8
20260509125332 23 355 0.0 0.0 0.00 0.10 0.00 98 1010.6
20260509124833 23 355 0.0 0.0 0.00 0.10 0.00 98 1010.8
20260509124330 23 355 0.0 0.0 0.00 0.10 0.00 98 1010.5
20260509123832 23 355 0.0 3.2 0.00 0.10 0.00 98 1010.3
20260509123330 23 355 0.0 3.2 0.00 0.10 0.00 98 1010.3
20260509122836 23 350 0.0 0.0 0.00 0.10 0.00 98 1010.6
20260509122831 23 355 0.0 1.6 0.00 0.10 0.00 98 1010.3
20260509122450 23 350 0.0 0.0 0.00 0.10 0.00 98 1010.7
20260509121330 23 350 0.0 0.0 0.00 0.10 0.00 98 1010.5
20260509120830 23 350 0.0 0.0 0.00 0.10 0.00 98 1010.5
20260509120330 23 350 0.0 0.0 0.00 0.10 0.00 98 1010.5
20260509115830 23 350 0.0 0.0 0.00 0.10 0.00 98 1010.5
20260509115331 23 350 0.0 0.0 0.00 0.10 0.00 98 1010.3
20260509114832 23 350 0.0 1.6 0.00 0.10 0.00 98 1010.2
20260509114331 23 349 0.0 1.6 0.00 0.10 0.00 98 1010.3
20260509113830 23 350 0.0 0.0 0.00 0.10 0.00 98 1010.4
20260509113331 23 350 0.0 3.2 0.00 0.10 0.00 98 1010.4
20260509113056 23 350 0.0 3.2 0.00 0.10 0.00 98 1010.4
20260509112319 23 350 1.6 6.4 0.00 0.10 0.00 98 1010.4
20260509111813 23 350 1.6 6.4 0.00 0.10 0.00 98 1010.5
20260509111306 23 142 0.0 3.2 0.00 0.10 0.00 98 1010.4
20260509110800 23 142 0.0 1.6 0.00 0.10 0.00 98 1010.3
20260509110526 23 142 0.0 0.0 0.00 0.10 0.00 98 1009.9
20260509105749 23 142 0.0 0.0 0.00 0.10 0.00 97 1009.9
20260509105243 23 142 0.0 0.0 0.00 0.10 0.00 97 1009.8
20260509104735 23 142 0.0 0.0 0.00 0.10 0.00 97 1009.7
20260509104228 23 142 0.0 0.0 0.00 0.10 0.00 98 1009.9
20260509103723 23 142 0.0 0.0 0.00 0.10 0.00 98 1009.8
20260509103217 23 143 0.0 0.0 0.00 0.10 0.00 98 1009.8
20260509103212 23 142 0.0 0.0 0.00 0.10 0.00 98 1009.7
20260509102205 23 142 0.0 3.2 0.00 0.10 0.00 98 1009.7
20260509101659 23 142 0.0 3.2 0.00 0.10 0.00 98 1009.7
20260509101153 23 142 0.0 1.6 0.00 0.10 0.00 98 1009.7
20260509100653 23 142 0.0 0.0 0.00 0.10 0.00 98 1009.7
20260509100153 23 142 0.0 0.0 0.00 0.10 0.00 98 1009.6
20260509095923 23 143 0.0 0.0 0.00 0.10 0.00 98 1009.5
20260509095152 23 142 0.0 0.0 0.00 0.10 0.00 98 1009.4
20260509094652 23 143 0.0 0.0 0.00 0.10 0.00 98 1009.4
20260509094152 23 142 0.0 0.0 0.00 0.10 0.00 98 1009.3
20260509093924 23 142 0.0 0.0 0.00 0.10 0.00 98 1009.2
20260509093153 23 142 0.0 0.0 0.00 0.10 0.00 98 1009.3
20260509092650 23 142 0.0 0.0 0.00 0.10 0.00 98 1009.3
20260509092151 23 142 0.0 0.0 0.00 0.10 0.00 98 1009.3
20260509091922 23 142 0.0 0.0 0.00 0.10 0.00 98 1009.3
20260509091151 23 142 0.0 0.0 0.00 0.10 0.00 98 1009.5
20260509090656 23 143 0.0 0.0 0.00 0.10 0.00 98 1009.8
20260509090651 23 142 0.0 0.0 0.00 0.10 0.00 98 1009.8
20260509085651 23 143 0.0 0.0 0.00 0.10 0.00 98 1009.7
20260509085148 23 142 0.0 0.0 0.00 0.10 0.00 98 1009.8
20260509084650 23 143 0.0 0.0 0.00 0.10 0.00 98 1009.9
20260509084147 23 142 0.0 0.0 0.00 0.10 0.00 98 1009.8
20260509084140 23 142 0.0 0.0 0.00 0.10 0.00 98 1009.9
20260509083132 23 142 0.0 0.0 0.00 0.10 0.00 98 1009.8
20260509082626 23 142 0.0 0.0 0.00 0.10 0.00 98 1009.7
20260509082119 23 142 0.0 0.0 0.00 0.10 0.00 98 1009.7
20260509081614 23 142 0.0 3.2 0.00 0.10 0.00 98 1009.6
20260509081108 23 143 0.0 3.2 0.00 0.10 0.00 98 1009.8
20260509080602 23 142 0.0 3.2 0.00 0.10 0.00 98 1009.7
20260509080056 23 142 0.0 3.2 0.00 0.10 0.00 98 1009.5
20260509075550 23 142 0.0 3.2 0.00 0.10 0.00 98 1009.6
20260509075044 23 142 0.0 4.8 0.00 0.10 0.00 98 1009.5
20260509074538 23 143 0.0 4.8 0.00 0.10 0.00 98 1009.6
20260509074032 23 143 1.6 4.8 0.00 0.10 0.00 98 1009.5
20260509073525 23 142 1.6 4.8 0.00 0.10 0.00 98 1009.5
20260509073020 23 143 1.6 8.0 0.00 0.10 0.00 98 1009.4
20260509072514 23 145 3.2 9.7 0.00 0.10 0.00 98 1009.3
20260509072008 23 105 3.2 9.7 0.00 0.10 0.00 98 1009.2
20260509071732 23 130 3.2 6.4 0.00 0.10 0.00 98 1009.3
20260509070956 23 98 1.6 6.4 0.00 0.10 0.00 98 1009.5
20260509070450 23 102 1.6 6.4 0.00 0.10 0.00 98 1009.6
20260509065944 23 97 1.6 6.4 0.00 0.10 0.00 98 1009.7
20260509065438 23 83 0.0 6.4 0.00 0.10 0.00 98 1009.7
20260509065204 23 82 0.0 4.8 0.00 0.10 0.00 98 1009.8
20260509064426 23 81 0.0 3.2 0.00 0.10 0.00 98 1009.8
20260509063920 23 81 0.0 3.2 0.00 0.10 0.00 98 1009.9
20260509063645 23 81 0.0 6.4 0.00 0.10 0.00 98 1010.1
20260509062911 23 81 0.0 6.4 0.00 0.10 0.00 97 1010.1
20260509062904 23 81 0.0 1.6 0.00 0.10 0.00 97 1010.1
20260509061856 23 81 0.0 3.2 0.00 0.10 0.00 97 1010.0
20260509061350 23 81 0.0 4.8 0.00 0.10 0.00 97 1010.1
20260509060844 23 81 0.0 4.8 0.00 0.10 0.00 97 1010.2
20260509060338 23 80 0.0 4.8 0.00 0.10 0.00 97 1010.2
20260509055832 23 81 0.0 6.4 0.00 0.10 0.00 97 1010.1
20260509055326 23 81 0.0 6.4 0.00 0.10 0.00 97 1010.2
20260509055050 23 80 0.0 3.2 0.00 0.10 0.00 97 1010.3
20260509054314 23 80 0.0 1.6 0.00 0.10 0.00 97 1010.3
20260509053809 23 80 0.0 3.2 0.00 0.10 0.00 97 1010.2
20260509053803 23 80 0.0 4.8 0.00 0.10 0.00 97 1010.4
20260509052756 23 80 0.0 4.8 0.00 0.10 0.00 97 1010.2
20260509052521 23 78 0.0 4.8 0.00 0.10 0.00 97 1010.3
20260509051744 23 78 1.6 4.8 0.00 0.10 0.00 97 1010.3
20260509051243 23 78 0.0 4.8 0.00 0.10 0.00 97 1010.3
20260509050739 23 79 0.0 4.8 0.00 0.10 0.00 97 1010.1
20260509050240 23 86 0.0 0.0 0.00 0.10 0.00 97 1010.2
20260509045740 23 86 0.0 0.0 0.00 0.10 0.10 97 1010.2
20260509045237 23 86 0.0 4.8 0.00 0.10 0.10 97 1010.2
20260509044736 23 86 1.6 6.4 0.00 0.10 0.10 97 1010.2
20260509044241 23 109 0.0 4.8 0.00 0.10 0.10 97 1010.3
20260509044235 23 87 1.6 6.4 0.00 0.10 0.10 97 1010.4
20260509043235 23 109 1.6 4.8 0.00 0.10 0.10 97 1010.3
20260509042735 23 109 1.6 9.7 0.00 0.10 0.10 97 1010.4
20260509042235 23 120 1.6 9.7 0.00 0.10 0.10 97 1010.3
20260509041734 23 108 1.6 9.7 0.00 0.10 0.10 97 1010.3
20260509041235 23 109 1.6 9.7 0.00 0.10 0.10 97 1010.2
20260509040735 23 109 3.2 9.7 0.00 0.10 0.10 97 1010.2
20260509040500 23 103 1.6 6.4 0.00 0.10 0.10 97 1010.1
20260509035729 23 99 1.6 9.7 0.00 0.10 0.10 96 1010.1
20260509035231 23 105 3.2 11.3 0.00 0.10 0.10 96 1010.1
20260509034730 23 90 1.6 11.3 0.00 0.10 0.10 96 1009.9
20260509034503 23 61 1.6 4.8 0.00 0.10 0.10 96 1010.0
20260509033729 23 61 0.0 4.8 0.00 0.10 0.10 96 1009.9
20260509033230 23 61 1.6 4.8 0.00 0.10 0.10 96 1009.9
20260509032729 23 61 1.6 4.8 0.00 0.10 0.10 96 1009.8
20260509032230 23 58 1.6 6.4 0.00 0.10 0.10 96 1009.8
20260509031731 23 51 3.2 6.4 0.00 0.10 0.10 96 1009.7
20260509031232 23 52 3.2 8.0 0.00 0.10 0.10 96 1009.7
20260509030731 23 51 3.2 8.0 0.00 0.10 0.10 96 1009.7
20260509030232 23 55 3.2 8.0 0.00 0.10 0.10 96 1009.8
20260509025732 23 84 3.2 8.0 0.00 0.10 0.10 96 1009.7
20260509025229 23 53 3.2 8.0 0.00 0.10 0.10 96 1009.6
20260509024730 23 53 3.2 8.0 0.00 0.10 0.10 96 1009.6
20260509024501 23 52 3.2 4.8 0.00 0.10 0.10 96 1009.6
20260509023729 23 52 3.2 6.4 0.00 0.10 0.10 96 1009.5
20260509023230 23 53 3.2 6.4 0.00 0.10 0.10 96 1009.3
20260509022730 23 53 3.2 6.4 0.00 0.10 0.10 96 1009.5
20260509022229 23 53 3.2 6.4 0.00 0.10 0.10 96 1009.3
20260509021729 23 47 3.2 6.4 0.00 0.10 0.10 96 1009.3
20260509021229 23 46 3.2 6.4 0.00 0.10 0.10 96 1009.3